Home   Weather   Iași   Past weeks
Flag for Romania

Past Weather in Iași, Romania — Yesterday and Last 2 Weeks

Now
37 °F

Low clouds.


Feels Like: 28 °F
Forecast: 33 / 42 °F
Wind: 16 mph from Southeast

Location: Iasi Airport

Current Time: Nov 13, 2018 at 4:45:00 am

Latest Report: Nov 13, 2018 at 4:00 am


Visibility: N/A

Pressure: 30.54 "Hg

Humidity: 87%

Dew Point: 34 °F

Location of IașiLocation

Past Weather in Iași — Graph

°F

Iași Temperature Yesterday

Maximum temperature yesterday: 45 °F (at 10:30 am)
Minimum temperature yesterday: 39 °F (at 10:00 pm)
Average temperature yesterday: 43 °F

High & Low Weather Summary for the Past Weeks

 TemperatureHumidityPressure
High75 °F (Oct 29, 3:00 pm)94% (Oct 31, 7:00 am)30.54 "Hg (Oct 31, 7:00 am)
Low36 °F (Nov 9, 7:00 am)39% (Oct 29, 3:00 pm)29.95 "Hg (Oct 29, 3:30 am)
Average51 °F73%30.27 "Hg
* Reported Oct 29 3:30 am — Nov 13 3:30 am, Iași. Weather by CustomWeather, © 2018

Note: Actual official high and low records may vary slightly from our data, if they occured in-between our weather recording intervals... More about our weather records

Advertising

Iași Weather History for the Previous 24 Hours

Scroll right to see more
 ConditionsComfort  
Time TempWeatherWind HumidityBarometerVisibility
3:30 am
Tue, Nov 13
37 °FLow clouds.16 mph87%30.54 "HgN/A
3:00 am37 °FLow clouds.17 mph87%30.54 "HgN/A
2:30 am37 °FLow clouds.17 mph87%30.54 "HgN/A
2:00 am37 °FLow clouds.17 mph87%30.54 "HgN/A
1:30 am37 °FLow clouds.17 mph87%30.54 "HgN/A
1:00 am37 °FLow clouds.17 mph87%30.54 "HgN/A
12:30 am39 °FLow clouds.18 mph81%30.54 "HgN/A
12:00 am39 °FLow clouds.17 mph87%30.54 "HgN/A
11:30 pm
Mon, Nov 12
39 °FLow clouds.18 mph87%30.54 "HgN/A
11:00 pm39 °FLow clouds.17 mph87%30.54 "HgN/A
10:30 pm39 °FLow clouds.17 mph87%30.54 "HgN/A
10:00 pm39 °FLow clouds.18 mph87%30.54 "Hg6 mi
9:30 pm41 °FLow clouds.18 mph81%30.54 "HgN/A
9:00 pm41 °FLow clouds.17 mph81%30.54 "HgN/A
8:30 pm41 °FLow clouds.17 mph81%30.54 "HgN/A
8:00 pm43 °FLow clouds.16 mph81%30.51 "HgN/A
7:30 pm43 °FLow clouds.16 mph81%30.51 "HgN/A
7:00 pm43 °FPartly cloudy.16 mph81%30.51 "HgN/A
6:30 pm43 °FPassing clouds.17 mph81%30.51 "HgN/A
6:00 pm43 °FPartly cloudy.16 mph81%30.48 "HgN/A
5:30 pm43 °FPartly cloudy.14 mph81%30.48 "HgN/A
5:00 pm45 °FPassing clouds.15 mph76%30.48 "HgN/A
4:30 pm45 °FPartly sunny.16 mph76%30.45 "HgN/A
4:00 pm45 °FPartly sunny.15 mph76%30.48 "HgN/A
3:30 pm45 °FOvercast.16 mph76%30.45 "HgN/A
3:00 pm45 °FOvercast.14 mph76%30.45 "HgN/A
2:30 pm45 °FOvercast.15 mph76%30.45 "HgN/A
2:00 pm45 °FOvercast.14 mph76%30.45 "HgN/A
1:30 pm45 °FOvercast.15 mph71%30.45 "HgN/A
1:00 pm45 °FOvercast.15 mph71%30.45 "HgN/A
12:30 pm45 °FOvercast.14 mph71%30.45 "HgN/A
12:00 pm45 °FOvercast.13 mph71%30.45 "HgN/A
11:30 am45 °FLight rain. Overcast.14 mph71%30.45 "HgN/A
11:00 am45 °FOvercast.13 mph71%30.45 "Hg6 mi
10:30 am45 °FOvercast.15 mph71%30.45 "Hg6 mi
10:00 am43 °FOvercast.13 mph71%30.45 "Hg6 mi
9:30 am43 °FOvercast.13 mph71%30.45 "Hg6 mi
9:00 am43 °FOvercast.14 mph71%30.42 "Hg6 mi
8:30 am43 °FOvercast.15 mph71%30.42 "Hg6 mi
8:00 am43 °FOvercast.14 mph71%30.42 "Hg4 mi
7:30 am43 °FOvercast.13 mph71%30.42 "Hg4 mi
7:00 am43 °FOvercast.14 mph71%30.39 "Hg5 mi
6:30 am43 °FOvercast.13 mph71%30.39 "HgN/A
6:00 am41 °FOvercast.13 mph76%30.39 "HgN/A
5:30 am41 °FOvercast.14 mph76%30.39 "HgN/A
5:00 am41 °FOvercast.14 mph76%30.36 "HgN/A
4:30 am41 °FOvercast.14 mph76%30.36 "HgN/A
4:00 am41 °FOvercast.14 mph76%30.36 "HgN/A
Weather by CustomWeather, © 2018

See weather overview